| time (UTC) | temp F | wind direction | speed MPH | gust MPH | rain 1hr in | rain 24hr in | rain mn in | humidity % | barometer mb |
| 20260507180320 | 55 | 293 | 5.0 | 9.0 | 0.00 | 0.19 | 0.00 | 34 | 1018.3 |
| 20260507180111 | 55 | 284 | 6.0 | 9.0 | 0.00 | 0.19 | 0.00 | 31 | 1018.4 |
| 20260507175907 | 55 | 259 | 5.0 | 8.0 | 0.00 | 0.19 | 0.00 | 31 | 1018.4 |
| 20260507175706 | 55 | 267 | 6.0 | 8.0 | 0.00 | 0.19 | 0.00 | 32 | 1018.5 |
| 20260507175406 | 55 | 245 | 6.0 | 11.0 | 0.00 | 0.19 | 0.00 | 32 | 1018.6 |
| 20260507175204 | 55 | 298 | 6.0 | 11.0 | 0.00 | 0.19 | 0.00 | 31 | 1018.6 |
| 20260507174955 | 55 | 307 | 6.0 | 11.0 | 0.00 | 0.19 | 0.00 | 31 | 1018.6 |
| 20260507174746 | 55 | 290 | 5.0 | 11.0 | 0.00 | 0.19 | 0.00 | 29 | 1018.5 |
| 20260507174542 | 55 | 282 | 5.0 | 11.0 | 0.00 | 0.19 | 0.00 | 30 | 1018.6 |
| 20260507174333 | 55 | 282 | 5.0 | 11.0 | 0.00 | 0.19 | 0.00 | 32 | 1018.5 |
| 20260507174126 | 55 | 302 | 4.0 | 11.0 | 0.00 | 0.19 | 0.00 | 33 | 1018.6 |
| 20260507173919 | 55 | 309 | 4.0 | 11.0 | 0.00 | 0.19 | 0.00 | 32 | 1018.6 |
| 20260507173357 | 55 | 287 | 3.0 | 11.0 | 0.00 | 0.19 | 0.00 | 34 | 1018.8 |
| 20260507172825 | 54 | 267 | 5.0 | 9.0 | 0.00 | 0.19 | 0.00 | 30 | 1019.0 |
| 20260507172618 | 54 | 286 | 5.0 | 9.0 | 0.00 | 0.19 | 0.00 | 34 | 1019.0 |
| 20260507172409 | 54 | 300 | 5.0 | 9.0 | 0.00 | 0.19 | 0.00 | 32 | 1019.0 |
| 20260507171844 | 54 | 302 | 4.0 | 10.0 | 0.00 | 0.19 | 0.00 | 35 | 1019.1 |
| 20260507171319 | 54 | 302 | 4.0 | 10.0 | 0.00 | 0.19 | 0.00 | 36 | 1019.2 |
| 20260507171115 | 54 | 252 | 4.0 | 10.0 | 0.00 | 0.19 | 0.00 | 33 | 1019.2 |
| 20260507170915 | 54 | 248 | 4.0 | 10.0 | 0.00 | 0.19 | 0.00 | 33 | 1019.2 |
| 20260507170348 | 53 | 310 | 5.0 | 10.0 | 0.00 | 0.19 | 0.00 | 36 | 1019.4 |
| 20260507170139 | 53 | 250 | 5.0 | 10.0 | 0.00 | 0.19 | 0.00 | 36 | 1019.4 |
| 20260507165935 | 53 | 290 | 5.0 | 10.0 | 0.00 | 0.19 | 0.00 | 36 | 1019.4 |
| 20260507165734 | 53 | 275 | 5.0 | 10.0 | 0.00 | 0.19 | 0.00 | 34 | 1019.5 |
| 20260507165534 | 53 | 261 | 5.0 | 10.0 | 0.00 | 0.19 | 0.00 | 36 | 1019.6 |
| 20260507165328 | 53 | 255 | 5.0 | 10.0 | 0.00 | 0.19 | 0.00 | 34 | 1019.6 |
| 20260507164802 | 53 | 302 | 5.0 | 12.0 | 0.00 | 0.19 | 0.00 | 39 | 1019.8 |
| 20260507164603 | 52 | 5 | 6.0 | 12.0 | 0.00 | 0.19 | 0.00 | 34 | 1019.7 |
| 20260507164401 | 52 | 294 | 6.0 | 12.0 | 0.00 | 0.19 | 0.00 | 35 | 1019.7 |
| 20260507164157 | 52 | 284 | 6.0 | 12.0 | 0.00 | 0.19 | 0.00 | 35 | 1019.9 |
| 20260507163946 | 52 | 279 | 6.0 | 12.0 | 0.00 | 0.19 | 0.00 | 36 | 1019.8 |
| 20260507163738 | 52 | 273 | 6.0 | 12.0 | 0.00 | 0.19 | 0.00 | 35 | 1019.9 |
| 20260507163533 | 52 | 288 | 5.0 | 12.0 | 0.00 | 0.19 | 0.00 | 34 | 1019.9 |
| 20260507163334 | 52 | 268 | 4.0 | 12.0 | 0.00 | 0.19 | 0.00 | 38 | 1019.9 |
| 20260507163132 | 52 | 254 | 5.0 | 12.0 | 0.00 | 0.19 | 0.00 | 34 | 1019.9 |
| 20260507162922 | 52 | 251 | 4.0 | 10.0 | 0.00 | 0.19 | 0.00 | 39 | 1020.0 |
| 20260507162713 | 52 | 282 | 4.0 | 11.0 | 0.00 | 0.19 | 0.00 | 43 | 1019.9 |
| 20260507162511 | 52 | 281 | 4.0 | 11.0 | 0.00 | 0.19 | 0.00 | 38 | 1020.0 |
| 20260507162307 | 52 | 242 | 5.0 | 11.0 | 0.00 | 0.19 | 0.00 | 39 | 1020.0 |
| 20260507162106 | 52 | 289 | 4.0 | 11.0 | 0.00 | 0.19 | 0.00 | 42 | 1020.1 |
| 20260507161904 | 51 | 315 | 5.0 | 11.0 | 0.00 | 0.19 | 0.00 | 37 | 1020.0 |
| 20260507161700 | 51 | 279 | 5.0 | 11.0 | 0.00 | 0.19 | 0.00 | 44 | 1020.0 |
| 20260507161458 | 51 | 248 | 5.0 | 11.0 | 0.00 | 0.19 | 0.00 | 45 | 1020.1 |
| 20260507161256 | 51 | 244 | 6.0 | 11.0 | 0.00 | 0.19 | 0.00 | 41 | 1020.1 |
| 20260507161054 | 51 | 244 | 6.0 | 11.0 | 0.00 | 0.19 | 0.00 | 40 | 1020.1 |
| 20260507160852 | 50 | 258 | 6.0 | 11.0 | 0.00 | 0.19 | 0.00 | 42 | 1020.2 |
| 20260507160644 | 50 | 299 | 6.0 | 11.0 | 0.00 | 0.19 | 0.00 | 44 | 1020.2 |
| 20260507160439 | 50 | 298 | 6.0 | 11.0 | 0.00 | 0.19 | 0.00 | 42 | 1020.3 |
| 20260507160232 | 50 | 281 | 6.0 | 11.0 | 0.00 | 0.19 | 0.00 | 43 | 1020.2 |
| 20260507160024 | 50 | 243 | 6.0 | 11.0 | 0.00 | 0.19 | 0.00 | 45 | 1020.3 |
| 20260507155822 | 50 | 231 | 6.0 | 11.0 | 0.00 | 0.19 | 0.00 | 44 | 1020.4 |
| 20260507155623 | 49 | 295 | 6.0 | 11.0 | 0.00 | 0.19 | 0.00 | 47 | 1020.3 |
| 20260507155415 | 49 | 245 | 6.0 | 11.0 | 0.00 | 0.19 | 0.00 | 46 | 1020.3 |
| 20260507154856 | 49 | 248 | 7.0 | 11.0 | 0.00 | 0.19 | 0.00 | 47 | 1020.4 |
| 20260507154327 | 49 | 239 | 7.0 | 11.0 | 0.00 | 0.19 | 0.00 | 49 | 1020.5 |
| 20260507154121 | 48 | 296 | 7.0 | 11.0 | 0.00 | 0.19 | 0.00 | 50 | 1020.6 |
| 20260507153920 | 48 | 269 | 6.0 | 11.0 | 0.00 | 0.19 | 0.00 | 51 | 1020.5 |
| 20260507153709 | 48 | 286 | 6.0 | 11.0 | 0.00 | 0.19 | 0.00 | 50 | 1020.5 |
| 20260507153504 | 48 | 227 | 6.0 | 12.0 | 0.00 | 0.19 | 0.00 | 49 | 1020.5 |
| 20260507152936 | 47 | 244 | 6.0 | 12.0 | 0.00 | 0.19 | 0.00 | 49 | 1020.5 |
| 20260507152727 | 47 | 254 | 6.0 | 12.0 | 0.00 | 0.19 | 0.00 | 50 | 1020.5 |
| 20260507152520 | 47 | 241 | 6.0 | 12.0 | 0.00 | 0.19 | 0.00 | 50 | 1020.5 |
| 20260507152321 | 47 | 257 | 6.0 | 12.0 | 0.00 | 0.19 | 0.00 | 51 | 1020.5 |
| 20260507152111 | 47 | 218 | 6.0 | 12.0 | 0.00 | 0.19 | 0.00 | 52 | 1020.6 |
| 20260507151902 | 47 | 262 | 6.0 | 12.0 | 0.00 | 0.19 | 0.00 | 52 | 1020.7 |
| 20260507151020 | 46 | 277 | 6.0 | 10.0 | 0.00 | 0.19 | 0.00 | 53 | 1020.9 |
| 20260507150814 | 46 | 276 | 6.0 | 10.0 | 0.00 | 0.19 | 0.00 | 53 | 1020.9 |
| 20260507150612 | 46 | 294 | 6.0 | 10.0 | 0.00 | 0.19 | 0.00 | 55 | 1021.0 |
| 20260507150403 | 46 | 257 | 6.0 | 10.0 | 0.00 | 0.19 | 0.00 | 55 | 1021.0 |
| 20260507150154 | 45 | 281 | 6.0 | 10.0 | 0.00 | 0.19 | 0.00 | 55 | 1020.9 |
| 20260507145637 | 45 | 246 | 6.0 | 11.0 | 0.00 | 0.19 | 0.00 | 54 | 1020.9 |
| 20260507145430 | 45 | 269 | 5.0 | 11.0 | 0.00 | 0.19 | 0.00 | 57 | 1020.8 |
| 20260507144905 | 45 | 240 | 6.0 | 11.0 | 0.00 | 0.19 | 0.00 | 56 | 1020.9 |
| 20260507144700 | 44 | 266 | 6.0 | 11.0 | 0.00 | 0.19 | 0.00 | 56 | 1020.9 |
| 20260507144452 | 44 | 288 | 6.0 | 11.0 | 0.00 | 0.19 | 0.00 | 55 | 1021.0 |
| 20260507144246 | 44 | 236 | 7.0 | 11.0 | 0.00 | 0.19 | 0.00 | 56 | 1021.1 |
| 20260507144041 | 44 | 263 | 7.0 | 12.0 | 0.00 | 0.19 | 0.00 | 56 | 1021.0 |
| 20260507143839 | 44 | 267 | 7.0 | 12.0 | 0.00 | 0.19 | 0.00 | 55 | 1021.0 |
| 20260507143634 | 44 | 265 | 7.0 | 12.0 | 0.00 | 0.19 | 0.00 | 56 | 1021.0 |
| 20260507143429 | 43 | 254 | 7.0 | 12.0 | 0.00 | 0.19 | 0.00 | 53 | 1021.0 |
| 20260507143221 | 43 | 233 | 7.0 | 12.0 | 0.00 | 0.19 | 0.00 | 55 | 1021.1 |
| 20260507143014 | 43 | 276 | 7.0 | 13.0 | 0.00 | 0.19 | 0.00 | 55 | 1021.2 |
| 20260507142804 | 43 | 259 | 7.0 | 13.0 | 0.00 | 0.19 | 0.00 | 54 | 1021.1 |
| 20260507142604 | 43 | 253 | 7.0 | 13.0 | 0.00 | 0.19 | 0.00 | 54 | 1021.2 |
| 20260507142359 | 43 | 242 | 7.0 | 13.0 | 0.00 | 0.19 | 0.00 | 54 | 1021.2 |
| 20260507142154 | 43 | 256 | 7.0 | 13.0 | 0.00 | 0.19 | 0.00 | 55 | 1021.2 |
| 20260507141946 | 43 | 268 | 7.0 | 13.0 | 0.00 | 0.19 | 0.00 | 54 | 1021.2 |
| 20260507141746 | 43 | 252 | 7.0 | 13.0 | 0.00 | 0.19 | 0.00 | 55 | 1021.2 |
| 20260507141543 | 43 | 268 | 7.0 | 13.0 | 0.00 | 0.19 | 0.00 | 54 | 1021.3 |
| 20260507141334 | 42 | 260 | 7.0 | 13.0 | 0.00 | 0.19 | 0.00 | 54 | 1021.2 |
| 20260507141123 | 42 | 259 | 7.0 | 13.0 | 0.00 | 0.19 | 0.00 | 53 | 1021.2 |
| 20260507140922 | 42 | 265 | 7.0 | 12.0 | 0.00 | 0.19 | 0.00 | 54 | 1021.2 |
| 20260507140721 | 42 | 258 | 8.0 | 11.0 | 0.00 | 0.19 | 0.00 | 53 | 1021.2 |
| 20260507140157 | 42 | 271 | 7.0 | 11.0 | 0.00 | 0.19 | 0.00 | 53 | 1021.3 |
| 20260507135954 | 42 | 254 | 7.0 | 11.0 | 0.00 | 0.19 | 0.00 | 52 | 1021.3 |
| 20260507135752 | 42 | 261 | 7.0 | 11.0 | 0.00 | 0.19 | 0.00 | 52 | 1021.3 |
| 20260507135546 | 41 | 248 | 6.0 | 11.0 | 0.00 | 0.19 | 0.00 | 53 | 1021.3 |
| 20260507135022 | 41 | 269 | 5.0 | 10.0 | 0.00 | 0.19 | 0.00 | 54 | 1021.3 |
| 20260507134501 | 41 | 253 | 5.0 | 8.0 | 0.00 | 0.19 | 0.00 | 56 | 1021.2 |
| 20260507134257 | 40 | 259 | 4.0 | 8.0 | 0.00 | 0.19 | 0.00 | 56 | 1021.2 |
| 20260507134049 | 40 | 248 | 4.0 | 8.0 | 0.00 | 0.19 | 0.00 | 57 | 1021.3 |
| 20260507133845 | 40 | 242 | 4.0 | 8.0 | 0.00 | 0.19 | 0.00 | 57 | 1021.2 |
| 20260507133323 | 39 | 277 | 5.0 | 8.0 | 0.00 | 0.19 | 0.00 | 58 | 1021.3 |
| 20260507133119 | 39 | 269 | 5.0 | 8.0 | 0.00 | 0.19 | 0.00 | 59 | 1021.3 |
| 20260507132920 | 39 | 271 | 5.0 | 8.0 | 0.00 | 0.19 | 0.00 | 58 | 1021.2 |
| 20260507132712 | 39 | 263 | 5.0 | 8.0 | 0.00 | 0.19 | 0.00 | 57 | 1021.2 |
| 20260507132508 | 39 | 260 | 5.0 | 8.0 | 0.00 | 0.19 | 0.00 | 58 | 1021.2 |
| 20260507132307 | 38 | 268 | 5.0 | 8.0 | 0.00 | 0.19 | 0.00 | 59 | 1021.2 |
| 20260507132105 | 38 | 249 | 5.0 | 8.0 | 0.00 | 0.19 | 0.00 | 58 | 1021.2 |
| 20260507131900 | 38 | 254 | 5.0 | 8.0 | 0.00 | 0.19 | 0.00 | 58 | 1021.2 |
| 20260507131651 | 38 | 258 | 5.0 | 8.0 | 0.00 | 0.19 | 0.00 | 59 | 1021.2 |
| 20260507131449 | 38 | 265 | 5.0 | 8.0 | 0.00 | 0.19 | 0.00 | 60 | 1021.2 |
| 20260507130926 | 37 | 262 | 5.0 | 8.0 | 0.00 | 0.19 | 0.00 | 60 | 1021.3 |
| 20260507130405 | 37 | 268 | 6.0 | 12.0 | 0.00 | 0.19 | 0.00 | 59 | 1021.3 |
| 20260507130204 | 37 | 257 | 6.0 | 12.0 | 0.00 | 0.19 | 0.00 | 60 | 1021.3 |
| 20260507125957 | 37 | 261 | 6.0 | 12.0 | 0.00 | 0.19 | 0.00 | 60 | 1021.3 |
| 20260507125757 | 36 | 242 | 6.0 | 12.0 | 0.00 | 0.19 | 0.00 | 59 | 1021.2 |
| 20260507125558 | 36 | 261 | 6.0 | 12.0 | 0.00 | 0.19 | 0.00 | 60 | 1021.2 |
| 20260507125359 | 36 | 255 | 5.0 | 12.0 | 0.00 | 0.19 | 0.00 | 60 | 1021.2 |
| 20260507125151 | 35 | 264 | 5.0 | 12.0 | 0.00 | 0.19 | 0.00 | 62 | 1021.3 |
| 20260507124941 | 35 | 250 | 5.0 | 12.0 | 0.00 | 0.19 | 0.00 | 62 | 1021.3 |
| 20260507124736 | 35 | 250 | 5.0 | 12.0 | 0.00 | 0.19 | 0.00 | 63 | 1021.2 |
| 20260507124528 | 34 | 247 | 5.0 | 9.0 | 0.00 | 0.19 | 0.00 | 65 | 1021.2 |
| 20260507124321 | 34 | 261 | 4.0 | 8.0 | 0.00 | 0.19 | 0.00 | 66 | 1021.1 |
| 20260507124119 | 33 | 259 | 4.0 | 7.0 | 0.00 | 0.19 | 0.00 | 67 | 1021.1 |
| 20260507123551 | 32 | 246 | 3.0 | 7.0 | 0.00 | 0.19 | 0.00 | 69 | 1021.1 |
| 20260507123348 | 32 | 251 | 3.0 | 7.0 | 0.00 | 0.19 | 0.00 | 69 | 1021.0 |
| 20260507123145 | 31 | 251 | 3.0 | 7.0 | 0.00 | 0.19 | 0.00 | 69 | 1021.0 |
| 20260507122941 | 31 | 252 | 3.0 | 6.0 | 0.00 | 0.19 | 0.00 | 70 | 1021.0 |
| 20260507122741 | 31 | 251 | 3.0 | 6.0 | 0.00 | 0.19 | 0.00 | 71 | 1021.0 |
| 20260507122542 | 30 | 251 | 3.0 | 6.0 | 0.00 | 0.19 | 0.00 | 71 | 1020.9 |
| 20260507122341 | 30 | 252 | 3.0 | 5.0 | 0.00 | 0.19 | 0.00 | 72 | 1020.9 |
| 20260507121810 | 30 | 252 | 3.0 | 5.0 | 0.00 | 0.19 | 0.00 | 71 | 1020.8 |
| 20260507121602 | 30 | 252 | 3.0 | 5.0 | 0.00 | 0.19 | 0.00 | 71 | 1020.8 |
| 20260507121035 | 30 | 252 | 4.0 | 6.0 | 0.00 | 0.19 | 0.00 | 71 | 1020.9 |
| 20260507120834 | 30 | 252 | 4.0 | 6.0 | 0.00 | 0.19 | 0.00 | 71 | 1020.9 |
| 20260507120625 | 30 | 252 | 4.0 | 6.0 | 0.00 | 0.19 | 0.00 | 71 | 1020.9 |
| 20260507120416 | 30 | 252 | 4.0 | 6.0 | 0.00 | 0.19 | 0.00 | 71 | 1020.9 |
| 20260507120206 | 30 | 252 | 4.0 | 6.0 | 0.00 | 0.19 | 0.00 | 70 | 1020.9 |
| 20260507120005 | 30 | 251 | 4.0 | 6.0 | 0.00 | 0.19 | 0.00 | 70 | 1020.9 |
| 20260507115757 | 30 | 251 | 4.0 | 6.0 | 0.00 | 0.19 | 0.00 | 71 | 1020.8 |
| 20260507115550 | 30 | 251 | 4.0 | 6.0 | 0.00 | 0.19 | 0.00 | 71 | 1020.9 |
| 20260507115344 | 30 | 252 | 4.0 | 6.0 | 0.00 | 0.19 | 0.00 | 72 | 1020.8 |
| 20260507115135 | 30 | 252 | 4.0 | 7.0 | 0.00 | 0.19 | 0.00 | 72 | 1020.8 |
| 20260507114931 | 30 | 252 | 4.0 | 7.0 | 0.00 | 0.19 | 0.00 | 72 | 1020.8 |
| 20260507114723 | 29 | 252 | 4.0 | 7.0 | 0.00 | 0.19 | 0.00 | 72 | 1020.9 |
| 20260507114523 | 29 | 252 | 4.0 | 7.0 | 0.00 | 0.19 | 0.00 | 72 | 1020.9 |
| 20260507114317 | 29 | 251 | 4.0 | 7.0 | 0.00 | 0.19 | 0.00 | 73 | 1020.9 |
| 20260507114109 | 29 | 251 | 4.0 | 7.0 | 0.00 | 0.19 | 0.00 | 73 | 1020.9 |
| 20260507113910 | 29 | 250 | 3.0 | 7.0 | 0.00 | 0.19 | 0.00 | 74 | 1020.9 |
| 20260507113348 | 28 | 250 | 3.0 | 7.0 | 0.00 | 0.19 | 0.00 | 75 | 1020.9 |
| 20260507113143 | 28 | 246 | 3.0 | 6.0 | 0.00 | 0.19 | 0.00 | 76 | 1020.9 |
| 20260507112932 | 28 | 246 | 3.0 | 5.0 | 0.00 | 0.19 | 0.00 | 77 | 1020.8 |
| 20260507112728 | 28 | 246 | 3.0 | 5.0 | 0.00 | 0.19 | 0.00 | 77 | 1020.8 |
| 20260507112524 | 28 | 246 | 3.0 | 5.0 | 0.00 | 0.19 | 0.00 | 77 | 1020.8 |
| 20260507112314 | 28 | 246 | 3.0 | 5.0 | 0.00 | 0.19 | 0.00 | 77 | 1020.8 |
| 20260507112113 | 28 | 246 | 3.0 | 5.0 | 0.00 | 0.19 | 0.00 | 77 | 1020.9 |
| 20260507111544 | 28 | 246 | 3.0 | 5.0 | 0.00 | 0.19 | 0.00 | 77 | 1020.9 |
| 20260507110654 | 27 | 246 | 3.0 | 4.0 | 0.00 | 0.19 | 0.00 | 79 | 1020.9 |
| 20260507110454 | 27 | 246 | 3.0 | 4.0 | 0.00 | 0.19 | 0.00 | 80 | 1020.9 |
| 20260507110252 | 27 | 246 | 3.0 | 4.0 | 0.00 | 0.19 | 0.00 | 80 | 1020.9 |
| 20260507105731 | 26 | 246 | 3.0 | 5.0 | 0.00 | 0.19 | 0.00 | 81 | 1020.9 |
| 20260507105211 | 26 | 246 | 3.0 | 5.0 | 0.00 | 0.19 | 0.00 | 82 | 1020.8 |
| 20260507105012 | 26 | 246 | 3.0 | 5.0 | 0.00 | 0.19 | 0.00 | 82 | 1020.8 |
| 20260507104811 | 26 | 246 | 3.0 | 5.0 | 0.00 | 0.19 | 0.00 | 83 | 1020.7 |
| 20260507104604 | 26 | 246 | 3.0 | 5.0 | 0.00 | 0.19 | 0.00 | 83 | 1020.8 |
| 20260507104359 | 26 | 246 | 4.0 | 5.0 | 0.00 | 0.19 | 0.00 | 83 | 1020.7 |
| 20260507103831 | 26 | 246 | 3.0 | 5.0 | 0.00 | 0.19 | 0.00 | 83 | 1020.8 |
| 20260507103304 | 26 | 246 | 3.0 | 5.0 | 0.00 | 0.19 | 0.00 | 84 | 1020.8 |
| 20260507103102 | 26 | 246 | 3.0 | 5.0 | 0.00 | 0.19 | 0.00 | 83 | 1020.9 |
| 20260507102902 | 26 | 246 | 3.0 | 5.0 | 0.00 | 0.19 | 0.00 | 84 | 1020.9 |
| 20260507102702 | 26 | 246 | 3.0 | 5.0 | 0.00 | 0.19 | 0.00 | 84 | 1020.9 |
| 20260507102501 | 26 | 246 | 3.0 | 5.0 | 0.00 | 0.19 | 0.00 | 83 | 1021.0 |
| 20260507102257 | 26 | 246 | 3.0 | 5.0 | 0.00 | 0.19 | 0.00 | 83 | 1021.0 |
| 20260507101734 | 26 | 246 | 3.0 | 4.0 | 0.00 | 0.19 | 0.00 | 83 | 1021.0 |
| 20260507100850 | 26 | 246 | 2.0 | 5.0 | 0.00 | 0.19 | 0.00 | 83 | 1021.2 |
| 20260507100644 | 26 | 246 | 2.0 | 5.0 | 0.00 | 0.19 | 0.00 | 83 | 1021.2 |
| 20260507100445 | 26 | 246 | 2.0 | 5.0 | 0.00 | 0.19 | 0.00 | 83 | 1021.2 |
| 20260507095605 | 26 | 246 | 3.0 | 5.0 | 0.00 | 0.19 | 0.00 | 84 | 1021.2 |
| 20260507095406 | 26 | 246 | 3.0 | 5.0 | 0.00 | 0.19 | 0.00 | 84 | 1021.2 |
| 20260507095205 | 25 | 246 | 3.0 | 5.0 | 0.00 | 0.19 | 0.00 | 84 | 1021.2 |
| 20260507095003 | 25 | 246 | 3.0 | 5.0 | 0.00 | 0.19 | 0.00 | 84 | 1021.1 |
| 20260507094801 | 25 | 246 | 3.0 | 5.0 | 0.00 | 0.19 | 0.00 | 84 | 1021.0 |
| 20260507094559 | 25 | 246 | 3.0 | 5.0 | 0.00 | 0.19 | 0.00 | 84 | 1021.0 |
| 20260507094359 | 26 | 246 | 3.0 | 5.0 | 0.00 | 0.19 | 0.00 | 84 | 1020.9 |
| 20260507094153 | 26 | 246 | 3.0 | 5.0 | 0.00 | 0.19 | 0.00 | 84 | 1021.0 |
| 20260507093623 | 26 | 246 | 3.0 | 5.0 | 0.00 | 0.19 | 0.00 | 84 | 1021.0 |
| 20260507093414 | 26 | 246 | 2.0 | 5.0 | 0.00 | 0.19 | 0.00 | 84 | 1021.0 |
| 20260507093207 | 26 | 246 | 2.0 | 5.0 | 0.00 | 0.19 | 0.00 | 84 | 1021.0 |
| 20260507093005 | 26 | 246 | 3.0 | 5.0 | 0.00 | 0.19 | 0.00 | 84 | 1021.0 |
| 20260507092803 | 26 | 246 | 3.0 | 5.0 | 0.00 | 0.19 | 0.00 | 84 | 1021.1 |
| 20260507091916 | 26 | 246 | 2.0 | 4.0 | 0.00 | 0.19 | 0.00 | 83 | 1021.2 |
| 20260507091705 | 26 | 245 | 2.0 | 4.0 | 0.00 | 0.19 | 0.00 | 82 | 1021.2 |
| 20260507091458 | 26 | 245 | 2.0 | 4.0 | 0.00 | 0.19 | 0.00 | 82 | 1021.2 |
| 20260507091258 | 26 | 246 | 2.0 | 4.0 | 0.00 | 0.19 | 0.00 | 82 | 1021.3 |
| 20260507091055 | 26 | 245 | 3.0 | 5.0 | 0.00 | 0.19 | 0.00 | 81 | 1021.2 |
| 20260507090845 | 27 | 245 | 3.0 | 5.0 | 0.00 | 0.19 | 0.00 | 80 | 1021.3 |
| 20260507090641 | 27 | 245 | 3.0 | 5.0 | 0.00 | 0.19 | 0.00 | 80 | 1021.3 |
| 20260507090122 | 27 | 245 | 3.0 | 7.0 | 0.00 | 0.19 | 0.00 | 79 | 1021.3 |
| 20260507085913 | 28 | 245 | 3.0 | 7.0 | 0.00 | 0.19 | 0.00 | 79 | 1021.4 |
| 20260507085705 | 28 | 244 | 3.0 | 7.0 | 0.00 | 0.19 | 0.00 | 78 | 1021.5 |
| 20260507085457 | 28 | 244 | 3.0 | 7.0 | 0.00 | 0.19 | 0.00 | 78 | 1021.5 |
| 20260507085247 | 28 | 244 | 4.0 | 7.0 | 0.00 | 0.19 | 0.00 | 78 | 1021.5 |
| 20260507085044 | 28 | 244 | 4.0 | 7.0 | 0.00 | 0.19 | 0.00 | 79 | 1021.5 |
| 20260507084843 | 28 | 244 | 3.0 | 7.0 | 0.00 | 0.19 | 0.00 | 79 | 1021.3 |
| 20260507084641 | 28 | 244 | 4.0 | 7.0 | 0.00 | 0.19 | 0.00 | 80 | 1021.4 |
| 20260507084436 | 28 | 244 | 3.0 | 7.0 | 0.00 | 0.19 | 0.00 | 81 | 1021.3 |
| 20260507084229 | 27 | 244 | 3.0 | 7.0 | 0.00 | 0.19 | 0.00 | 81 | 1021.3 |
| 20260507084024 | 27 | 249 | 3.0 | 6.0 | 0.00 | 0.19 | 0.00 | 82 | 1021.3 |
| 20260507083819 | 27 | 249 | 3.0 | 6.0 | 0.00 | 0.19 | 0.00 | 82 | 1021.3 |
| 20260507083250 | 27 | 248 | 3.0 | 5.0 | 0.00 | 0.19 | 0.00 | 83 | 1021.5 |
| 20260507083044 | 27 | 248 | 3.0 | 5.0 | 0.00 | 0.19 | 0.00 | 83 | 1021.4 |
| 20260507082845 | 27 | 248 | 3.0 | 5.0 | 0.00 | 0.19 | 0.00 | 83 | 1021.5 |
| 20260507082639 | 27 | 248 | 3.0 | 5.0 | 0.00 | 0.19 | 0.00 | 83 | 1021.5 |
| 20260507082439 | 27 | 248 | 3.0 | 5.0 | 0.00 | 0.19 | 0.00 | 83 | 1021.5 |
| 20260507082230 | 27 | 248 | 3.0 | 5.0 | 0.00 | 0.19 | 0.00 | 84 | 1021.4 |
| 20260507081657 | 27 | 248 | 3.0 | 5.0 | 0.00 | 0.19 | 0.00 | 85 | 1021.6 |
| 20260507081449 | 26 | 248 | 3.0 | 5.0 | 0.00 | 0.19 | 0.00 | 85 | 1021.6 |
| 20260507081243 | 26 | 248 | 3.0 | 4.0 | 0.00 | 0.19 | 0.00 | 85 | 1021.6 |
| 20260507080843 | 26 | 248 | 2.0 | 4.0 | 0.00 | 0.19 | 0.00 | 86 | 1021.6 |
| 20260507080638 | 26 | 248 | 2.0 | 4.0 | 0.00 | 0.19 | 0.00 | 86 | 1021.5 |
| 20260507080104 | 26 | 248 | 2.0 | 7.0 | 0.00 | 0.19 | 0.00 | 85 | 1021.6 |
| 20260507075853 | 26 | 248 | 2.0 | 7.0 | 0.00 | 0.19 | 0.00 | 85 | 1021.6 |
| 20260507075647 | 26 | 248 | 2.0 | 7.0 | 0.00 | 0.19 | 0.00 | 85 | 1021.5 |
| 20260507075439 | 27 | 248 | 3.0 | 7.0 | 0.00 | 0.19 | 0.00 | 85 | 1021.6 |
| 20260507075234 | 27 | 248 | 3.0 | 7.0 | 0.00 | 0.19 | 0.00 | 85 | 1021.6 |
| 20260507075035 | 27 | 248 | 3.0 | 7.0 | 0.00 | 0.19 | 0.00 | 85 | 1021.6 |
| 20260507074829 | 27 | 248 | 3.0 | 7.0 | 0.00 | 0.19 | 0.00 | 85 | 1021.6 |
| 20260507074625 | 27 | 248 | 3.0 | 7.0 | 0.00 | 0.19 | 0.00 | 86 | 1021.7 |
| 20260507074420 | 27 | 248 | 3.0 | 7.0 | 0.00 | 0.19 | 0.00 | 86 | 1021.6 |
| 20260507074218 | 27 | 247 | 3.0 | 7.0 | 0.00 | 0.19 | 0.00 | 86 | 1021.6 |
| 20260507074011 | 27 | 247 | 3.0 | 6.0 | 0.00 | 0.19 | 0.00 | 86 | 1021.7 |
| 20260507073811 | 27 | 248 | 3.0 | 6.0 | 0.00 | 0.19 | 0.00 | 86 | 1021.7 |
| 20260507073612 | 28 | 247 | 3.0 | 6.0 | 0.00 | 0.19 | 0.00 | 86 | 1021.7 |
| 20260507073410 | 28 | 247 | 3.0 | 6.0 | 0.00 | 0.19 | 0.00 | 87 | 1021.7 |
| 20260507073210 | 28 | 247 | 3.0 | 8.0 | 0.00 | 0.19 | 0.00 | 88 | 1021.7 |
| 20260507073004 | 28 | 247 | 3.0 | 8.0 | 0.00 | 0.19 | 0.00 | 88 | 1021.7 |
| 20260507072755 | 27 | 247 | 4.0 | 8.0 | 0.00 | 0.19 | 0.00 | 89 | 1021.7 |
| 20260507072548 | 27 | 256 | 4.0 | 8.0 | 0.00 | 0.19 | 0.00 | 89 | 1021.7 |
| 20260507072041 | 27 | 255 | 4.0 | 8.0 | 0.00 | 0.19 | 0.00 | 91 | 1021.8 |
| 20260507071833 | 27 | 255 | 4.0 | 8.0 | 0.00 | 0.19 | 0.00 | 91 | 1021.7 |
| 20260507071632 | 27 | 254 | 4.0 | 8.0 | 0.00 | 0.19 | 0.00 | 92 | 1021.7 |
| 20260507071428 | 27 | 240 | 3.0 | 8.0 | 0.00 | 0.19 | 0.00 | 93 | 1021.8 |
| 20260507071228 | 26 | 231 | 3.0 | 6.0 | 0.00 | 0.19 | 0.00 | 93 | 1021.8 |
| 20260507071023 | 26 | 229 | 3.0 | 5.0 | 0.00 | 0.19 | 0.00 | 93 | 1021.9 |
| 20260507070819 | 26 | 229 | 3.0 | 5.0 | 0.00 | 0.19 | 0.00 | 93 | 1021.8 |
| 20260507070610 | 26 | 229 | 3.0 | 5.0 | 0.00 | 0.19 | 0.00 | 93 | 1021.8 |
| 20260507065723 | 25 | 229 | 2.0 | 4.0 | 0.00 | 0.19 | 0.00 | 94 | 1021.8 |
| 20260507065515 | 25 | 229 | 2.0 | 4.0 | 0.00 | 0.19 | 0.00 | 94 | 1021.8 |
| 20260507064954 | 25 | 229 | 1.0 | 4.0 | 0.00 | 0.19 | 0.00 | 94 | 1021.8 |
| 20260507064745 | 25 | 229 | 1.0 | 3.0 | 0.00 | 0.19 | 0.00 | 94 | 1021.9 |
| 20260507064541 | 24 | 229 | 1.0 | 3.0 | 0.00 | 0.19 | 0.00 | 94 | 1022.0 |
| 20260507064341 | 24 | 229 | 1.0 | 3.0 | 0.00 | 0.19 | 0.00 | 94 | 1022.0 |
| 20260507064134 | 24 | 229 | 1.0 | 3.0 | 0.00 | 0.19 | 0.00 | 94 | 1021.9 |
| 20260507063924 | 24 | 229 | 1.0 | 3.0 | 0.00 | 0.19 | 0.00 | 94 | 1022.0 |
| 20260507062735 | 24 | 229 | 1.0 | 3.0 | 0.00 | 0.19 | 0.00 | 93 | 1021.8 |
| 20260507062536 | 24 | 229 | 0.0 | 3.0 | 0.00 | 0.19 | 0.00 | 93 | 1021.9 |
| 20260507062329 | 24 | 229 | 0.0 | 3.0 | 0.00 | 0.19 | 0.00 | 93 | 1021.9 |
| 20260507062125 | 24 | 229 | 0.0 | 2.0 | 0.00 | 0.19 | 0.00 | 93 | 1022.0 |
| 20260507061926 | 23 | 229 | 0.0 | 2.0 | 0.00 | 0.19 | 0.00 | 93 | 1021.9 |
| 20260507061356 | 24 | 229 | 0.0 | 1.0 | 0.00 | 0.19 | 0.00 | 93 | 1021.9 |
| 20260507061153 | 24 | 229 | 0.0 | 1.0 | 0.00 | 0.19 | 0.00 | 93 | 1021.9 |
| 20260507060945 | 24 | 229 | 0.0 | 1.0 | 0.00 | 0.19 | 0.00 | 93 | 1021.8 |
| 20260507060420 | 24 | 229 | 0.0 | 1.0 | 0.00 | 0.19 | 0.00 | 93 | 1021.8 |
| 20260507060213 | 24 | 229 | 0.0 | 1.0 | 0.00 | 0.19 | 0.00 | 93 | 1021.8 |
| 20260507060008 | 24 | 229 | 0.0 | 1.0 | 0.00 | 0.19 | 0.19 | 93 | 1021.7 |
| 20260507055800 | 25 | 229 | 0.0 | 1.0 | 0.00 | 0.19 | 0.19 | 93 | 1021.7 |
| 20260507055559 | 25 | 229 | 0.0 | 1.0 | 0.00 | 0.19 | 0.19 | 93 | 1021.7 |
| 20260507054724 | 26 | 229 | 0.0 | 0.0 | 0.00 | 0.19 | 0.19 | 93 | 1021.5 |
| 20260507054518 | 26 | 229 | 0.0 | 0.0 | 0.00 | 0.19 | 0.19 | 93 | 1021.5 |
| 20260507054309 | 26 | 229 | 1.0 | 4.0 | 0.00 | 0.19 | 0.19 | 93 | 1021.6 |
| 20260507054105 | 26 | 229 | 0.0 | 4.0 | 0.00 | 0.19 | 0.19 | 93 | 1021.5 |
| 20260507053858 | 27 | 229 | 0.0 | 4.0 | 0.00 | 0.19 | 0.19 | 93 | 1021.5 |
| 20260507053651 | 27 | 229 | 0.0 | 4.0 | 0.00 | 0.19 | 0.19 | 94 | 1021.6 |
| 20260507053449 | 27 | 229 | 0.0 | 4.0 | 0.00 | 0.19 | 0.19 | 94 | 1021.6 |
| 20260507053246 | 27 | 229 | 0.0 | 1.0 | 0.00 | 0.19 | 0.19 | 94 | 1021.6 |
| 20260507053045 | 27 | 229 | 0.0 | 0.0 | 0.00 | 0.19 | 0.19 | 94 | 1021.7 |
| 20260507052835 | 27 | 229 | 0.0 | 0.0 | 0.00 | 0.19 | 0.19 | 94 | 1021.6 |
| 20260507052629 | 27 | 229 | 1.0 | 4.0 | 0.00 | 0.19 | 0.19 | 93 | 1021.6 |
| 20260507052430 | 27 | 229 | 1.0 | 4.0 | 0.00 | 0.19 | 0.19 | 94 | 1021.6 |
| 20260507051909 | 28 | 229 | 1.0 | 4.0 | 0.00 | 0.19 | 0.19 | 94 | 1021.5 |
| 20260507051700 | 28 | 229 | 1.0 | 4.0 | 0.00 | 0.19 | 0.19 | 94 | 1021.6 |
| 20260507051139 | 28 | 229 | 0.0 | 2.0 | 0.00 | 0.19 | 0.19 | 94 | 1021.5 |
| 20260507050932 | 28 | 229 | 0.0 | 2.0 | 0.00 | 0.19 | 0.19 | 94 | 1021.6 |
| 20260507050729 | 28 | 229 | 0.0 | 1.0 | 0.00 | 0.19 | 0.19 | 94 | 1021.6 |
| 20260507050518 | 28 | 229 | 0.0 | 3.0 | 0.00 | 0.19 | 0.19 | 94 | 1021.6 |
| 20260507050316 | 28 | 229 | 0.0 | 3.0 | 0.00 | 0.19 | 0.19 | 94 | 1021.6 |
| 20260507050105 | 28 | 229 | 0.0 | 1.0 | 0.00 | 0.19 | 0.19 | 94 | 1021.5 |
| 20260507045538 | 28 | 229 | 1.0 | 5.0 | 0.00 | 0.19 | 0.19 | 93 | 1021.5 |
| 20260507045012 | 28 | 229 | 1.0 | 5.0 | 0.00 | 0.19 | 0.19 | 93 | 1021.5 |
| 20260507044806 | 28 | 230 | 1.0 | 6.0 | 0.00 | 0.19 | 0.19 | 93 | 1021.5 |
| 20260507043931 | 28 | 230 | 2.0 | 6.0 | 0.00 | 0.19 | 0.19 | 93 | 1021.3 |
| 20260507043722 | 28 | 225 | 2.0 | 6.0 | 0.00 | 0.19 | 0.19 | 93 | 1021.5 |
| 20260507042827 | 28 | 224 | 1.0 | 6.0 | 0.00 | 0.19 | 0.19 | 93 | 1021.4 |
| 20260507042626 | 28 | 223 | 1.0 | 6.0 | 0.00 | 0.19 | 0.19 | 93 | 1021.5 |
| 20260507042420 | 28 | 223 | 1.0 | 6.0 | 0.00 | 0.19 | 0.19 | 93 | 1021.5 |
| 20260507042210 | 28 | 228 | 1.0 | 6.0 | 0.00 | 0.19 | 0.19 | 92 | 1021.4 |
| 20260507042005 | 28 | 227 | 1.0 | 6.0 | 0.00 | 0.19 | 0.19 | 93 | 1021.5 |
| 20260507041758 | 28 | 227 | 1.0 | 6.0 | 0.00 | 0.19 | 0.19 | 92 | 1021.5 |
| 20260507041227 | 28 | 226 | 0.0 | 5.0 | 0.00 | 0.19 | 0.19 | 92 | 1021.6 |
| 20260507041027 | 28 | 226 | 0.0 | 5.0 | 0.00 | 0.19 | 0.19 | 92 | 1021.5 |
| 20260507040821 | 28 | 229 | 0.0 | 5.0 | 0.00 | 0.19 | 0.19 | 92 | 1021.5 |
| 20260507040614 | 28 | 229 | 0.0 | 5.0 | 0.00 | 0.19 | 0.19 | 92 | 1021.5 |
| 20260507040048 | 28 | 229 | 1.0 | 6.0 | 0.00 | 0.19 | 0.19 | 92 | 1021.5 |
| 20260507035848 | 28 | 229 | 1.0 | 6.0 | 0.00 | 0.19 | 0.19 | 91 | 1021.5 |
| 20260507035323 | 28 | 233 | 1.0 | 6.0 | 0.00 | 0.19 | 0.19 | 91 | 1021.4 |
| 20260507034803 | 28 | 216 | 0.0 | 6.0 | 0.00 | 0.19 | 0.19 | 91 | 1021.4 |
| 20260507034553 | 28 | 224 | 0.0 | 6.0 | 0.00 | 0.19 | 0.19 | 91 | 1021.4 |
| 20260507034347 | 28 | 225 | 0.0 | 6.0 | 0.00 | 0.19 | 0.19 | 91 | 1021.4 |
| 20260507034138 | 29 | 206 | 0.0 | 6.0 | 0.00 | 0.19 | 0.19 | 91 | 1021.4 |
| 20260507033928 | 29 | 206 | 0.0 | 4.0 | 0.00 | 0.19 | 0.19 | 91 | 1021.4 |
| 20260507033727 | 29 | 206 | 0.0 | 4.0 | 0.00 | 0.19 | 0.19 | 91 | 1021.4 |
| 20260507033523 | 29 | 206 | 0.0 | 4.0 | 0.00 | 0.19 | 0.19 | 91 | 1021.4 |
| 20260507032958 | 29 | 207 | 0.0 | 7.0 | 0.00 | 0.19 | 0.19 | 90 | 1021.4 |
| 20260507032750 | 29 | 207 | 0.0 | 7.0 | 0.00 | 0.19 | 0.19 | 90 | 1021.3 |
| 20260507032542 | 29 | 254 | 1.0 | 7.0 | 0.00 | 0.19 | 0.19 | 90 | 1021.3 |
| 20260507032340 | 29 | 254 | 1.0 | 7.0 | 0.00 | 0.19 | 0.19 | 90 | 1021.3 |
| 20260507032131 | 29 | 254 | 1.0 | 7.0 | 0.00 | 0.19 | 0.19 | 90 | 1021.3 |
| 20260507031922 | 29 | 253 | 0.0 | 7.0 | 0.00 | 0.19 | 0.19 | 90 | 1021.2 |
| 20260507031715 | 29 | 257 | 1.0 | 7.0 | 0.00 | 0.19 | 0.19 | 90 | 1021.2 |
| 20260507031505 | 29 | 204 | 0.0 | 4.0 | 0.00 | 0.19 | 0.19 | 90 | 1021.2 |
| 20260507031303 | 29 | 205 | 0.0 | 1.0 | 0.00 | 0.19 | 0.19 | 90 | 1021.1 |
| 20260507031102 | 29 | 206 | 0.0 | 0.0 | 0.00 | 0.19 | 0.19 | 90 | 1021.0 |
| 20260507030855 | 29 | 205 | 1.0 | 5.0 | 0.00 | 0.19 | 0.19 | 90 | 1021.0 |
| 20260507030326 | 29 | 207 | 1.0 | 6.0 | 0.00 | 0.19 | 0.19 | 89 | 1021.0 |
| 20260507030118 | 29 | 207 | 1.0 | 6.0 | 0.00 | 0.19 | 0.19 | 89 | 1021.0 |
| 20260507025913 | 29 | 207 | 1.0 | 6.0 | 0.00 | 0.19 | 0.19 | 89 | 1020.9 |
| 20260507025703 | 29 | 207 | 1.0 | 6.0 | 0.00 | 0.19 | 0.19 | 89 | 1020.9 |
| 20260507025145 | 29 | 207 | 1.0 | 6.0 | 0.00 | 0.19 | 0.19 | 89 | 1020.8 |
| 20260507024614 | 30 | 212 | 1.0 | 5.0 | 0.00 | 0.19 | 0.19 | 89 | 1020.9 |
| 20260507024406 | 30 | 211 | 0.0 | 3.0 | 0.00 | 0.19 | 0.19 | 88 | 1020.9 |
| 20260507024157 | 30 | 211 | 0.0 | 1.0 | 0.00 | 0.19 | 0.19 | 88 | 1020.8 |
| 20260507023627 | 30 | 211 | 0.0 | 4.0 | 0.00 | 0.19 | 0.19 | 88 | 1020.8 |
| 20260507023420 | 30 | 211 | 1.0 | 4.0 | 0.00 | 0.19 | 0.19 | 88 | 1020.8 |
| 20260507023221 | 30 | 211 | 1.0 | 4.0 | 0.00 | 0.19 | 0.19 | 87 | 1020.7 |
| 20260507022333 | 30 | 211 | 0.0 | 6.0 | 0.00 | 0.19 | 0.19 | 87 | 1020.7 |
| 20260507022132 | 30 | 211 | 0.0 | 6.0 | 0.00 | 0.19 | 0.19 | 86 | 1020.8 |
| 20260507021613 | 31 | 212 | 0.0 | 6.0 | 0.00 | 0.19 | 0.19 | 86 | 1020.8 |
| 20260507021409 | 31 | 212 | 0.0 | 6.0 | 0.00 | 0.19 | 0.19 | 85 | 1020.7 |
| 20260507020848 | 31 | 213 | 1.0 | 6.0 | 0.00 | 0.19 | 0.19 | 84 | 1020.6 |
| 20260507020319 | 32 | 202 | 0.0 | 4.0 | 0.00 | 0.19 | 0.19 | 83 | 1020.5 |
| 20260507020111 | 32 | 202 | 0.0 | 5.0 | 0.00 | 0.19 | 0.19 | 83 | 1020.6 |
| 20260507015550 | 32 | 204 | 1.0 | 5.0 | 0.00 | 0.19 | 0.19 | 82 | 1020.5 |
| 20260507015346 | 32 | 204 | 1.0 | 5.0 | 0.00 | 0.19 | 0.19 | 82 | 1020.5 |
| 20260507015137 | 33 | 204 | 1.0 | 7.0 | 0.00 | 0.19 | 0.19 | 81 | 1020.5 |
| 20260507014931 | 33 | 204 | 1.0 | 7.0 | 0.00 | 0.19 | 0.19 | 81 | 1020.5 |
| 20260507014056 | 34 | 216 | 1.0 | 8.0 | 0.00 | 0.19 | 0.19 | 79 | 1020.5 |
| 20260507013852 | 34 | 213 | 1.0 | 8.0 | 0.00 | 0.19 | 0.19 | 79 | 1020.6 |
| 20260507013649 | 34 | 192 | 1.0 | 8.0 | 0.00 | 0.19 | 0.19 | 79 | 1020.6 |
| 20260507013443 | 34 | 192 | 2.0 | 8.0 | 0.00 | 0.19 | 0.19 | 78 | 1020.6 |
| 20260507013242 | 35 | 192 | 2.0 | 8.0 | 0.00 | 0.19 | 0.19 | 78 | 1020.5 |
| 20260507012715 | 35 | 171 | 2.0 | 8.0 | 0.00 | 0.19 | 0.19 | 77 | 1020.4 |
| 20260507012510 | 35 | 176 | 2.0 | 8.0 | 0.00 | 0.19 | 0.19 | 77 | 1020.4 |
| 20260507012301 | 35 | 194 | 1.0 | 8.0 | 0.00 | 0.19 | 0.19 | 77 | 1020.4 |
| 20260507012059 | 35 | 169 | 1.0 | 7.0 | 0.00 | 0.19 | 0.19 | 77 | 1020.5 |
| 20260507011532 | 36 | 169 | 2.0 | 7.0 | 0.00 | 0.19 | 0.19 | 77 | 1020.5 |
| 20260507011327 | 36 | 166 | 2.0 | 7.0 | 0.00 | 0.19 | 0.19 | 76 | 1020.5 |
| 20260507011120 | 36 | 163 | 1.0 | 7.0 | 0.00 | 0.19 | 0.19 | 76 | 1020.5 |
| 20260507010237 | 36 | 184 | 2.0 | 10.0 | 0.00 | 0.19 | 0.19 | 76 | 1020.4 |
| 20260507010026 | 36 | 184 | 2.0 | 10.0 | 0.00 | 0.19 | 0.19 | 77 | 1020.4 |
| 20260507005823 | 36 | 190 | 2.0 | 10.0 | 0.00 | 0.19 | 0.19 | 76 | 1020.4 |
| 20260507005617 | 36 | 206 | 2.0 | 10.0 | 0.00 | 0.19 | 0.19 | 76 | 1020.4 |
| 20260507005409 | 36 | 206 | 3.0 | 10.0 | 0.00 | 0.19 | 0.19 | 76 | 1020.4 |
| 20260507004848 | 36 | 205 | 2.0 | 10.0 | 0.00 | 0.19 | 0.19 | 77 | 1020.3 |
| 20260507004647 | 36 | 182 | 2.0 | 10.0 | 0.00 | 0.19 | 0.19 | 76 | 1020.4 |
| 20260507004438 | 36 | 182 | 2.0 | 10.0 | 0.00 | 0.19 | 0.19 | 76 | 1020.3 |
| 20260507003914 | 36 | 186 | 3.0 | 10.0 | 0.00 | 0.19 | 0.19 | 76 | 1020.2 |
| 20260507003709 | 36 | 173 | 3.0 | 10.0 | 0.00 | 0.19 | 0.19 | 75 | 1020.2 |
| 20260507003503 | 37 | 175 | 3.0 | 10.0 | 0.00 | 0.19 | 0.19 | 75 | 1020.3 |
| 20260507003303 | 37 | 164 | 3.0 | 10.0 | 0.00 | 0.19 | 0.19 | 74 | 1020.3 |
| 20260507003054 | 37 | 195 | 2.0 | 10.0 | 0.00 | 0.19 | 0.19 | 75 | 1020.2 |
| 20260507002849 | 37 | 162 | 2.0 | 6.0 | 0.00 | 0.19 | 0.19 | 75 | 1020.2 |
| 20260507002644 | 37 | 162 | 2.0 | 7.0 | 0.00 | 0.19 | 0.19 | 75 | 1020.3 |
| 20260507002436 | 37 | 191 | 1.0 | 7.0 | 0.00 | 0.19 | 0.19 | 75 | 1020.3 |
| 20260507002226 | 37 | 192 | 2.0 | 7.0 | 0.00 | 0.19 | 0.19 | 76 | 1020.2 |
| 20260507002016 | 37 | 187 | 2.0 | 7.0 | 0.00 | 0.19 | 0.19 | 76 | 1020.3 |
| 20260507001806 | 37 | 186 | 2.0 | 7.0 | 0.00 | 0.19 | 0.19 | 76 | 1020.3 |
| 20260507001559 | 36 | 185 | 3.0 | 7.0 | 0.00 | 0.20 | 0.19 | 76 | 1020.4 |
| 20260507001350 | 36 | 185 | 2.0 | 7.0 | 0.00 | 0.20 | 0.19 | 77 | 1020.3 |
| 20260507001141 | 36 | 244 | 2.0 | 7.0 | 0.00 | 0.20 | 0.19 | 77 | 1020.4 |
| 20260507000933 | 36 | 248 | 2.0 | 7.0 | 0.00 | 0.20 | 0.19 | 75 | 1020.4 |
| 20260507000733 | 36 | 250 | 2.0 | 8.0 | 0.00 | 0.20 | 0.19 | 77 | 1020.4 |
| 20260507000532 | 36 | 248 | 2.0 | 8.0 | 0.00 | 0.20 | 0.19 | 77 | 1020.4 |
| 20260507000010 | 36 | 248 | 4.0 | 8.0 | 0.00 | 0.20 | 0.19 | 75 | 1020.5 |
| 20260506235810 | 36 | 254 | 3.0 | 8.0 | 0.00 | 0.20 | 0.19 | 74 | 1020.4 |
| 20260506235605 | 36 | 254 | 4.0 | 8.0 | 0.00 | 0.20 | 0.19 | 74 | 1020.4 |
| 20260506235357 | 36 | 246 | 4.0 | 8.0 | 0.00 | 0.20 | 0.19 | 75 | 1020.4 |
| 20260506235154 | 36 | 244 | 4.0 | 8.0 | 0.00 | 0.20 | 0.19 | 76 | 1020.3 |
| 20260506234953 | 36 | 197 | 4.0 | 8.0 | 0.00 | 0.20 | 0.19 | 76 | 1020.3 |
| 20260506234751 | 36 | 251 | 4.0 | 8.0 | 0.00 | 0.20 | 0.19 | 76 | 1020.3 |
| 20260506234223 | 36 | 222 | 4.0 | 8.0 | 0.00 | 0.20 | 0.19 | 76 | 1020.2 |
| 20260506233708 | 35 | 247 | 3.0 | 6.0 | 0.00 | 0.20 | 0.19 | 75 | 1020.2 |
| 20260506233507 | 35 | 246 | 3.0 | 6.0 | 0.00 | 0.20 | 0.19 | 76 | 1020.3 |
| 20260506233300 | 35 | 249 | 3.0 | 6.0 | 0.00 | 0.20 | 0.19 | 76 | 1020.3 |
| 20260506233059 | 35 | 247 | 2.0 | 6.0 | 0.00 | 0.21 | 0.19 | 78 | 1020.3 |
| 20260506232857 | 35 | 276 | 3.0 | 6.0 | 0.00 | 0.21 | 0.19 | 77 | 1020.2 |
| 20260506232652 | 35 | 276 | 3.0 | 6.0 | 0.00 | 0.21 | 0.19 | 77 | 1020.4 |
| 20260506232444 | 35 | 277 | 3.0 | 6.0 | 0.00 | 0.21 | 0.19 | 75 | 1020.4 |
| 20260506232237 | 35 | 249 | 3.0 | 6.0 | 0.00 | 0.21 | 0.19 | 76 | 1020.4 |
| 20260506232037 | 34 | 249 | 3.0 | 6.0 | 0.00 | 0.21 | 0.19 | 77 | 1020.4 |
| 20260506231827 | 34 | 248 | 2.0 | 6.0 | 0.00 | 0.21 | 0.19 | 79 | 1020.4 |
| 20260506231625 | 34 | 248 | 2.0 | 6.0 | 0.00 | 0.21 | 0.19 | 79 | 1020.5 |
| 20260506231424 | 34 | 263 | 2.0 | 5.0 | 0.00 | 0.21 | 0.19 | 80 | 1020.4 |
| 20260506231223 | 34 | 263 | 2.0 | 5.0 | 0.00 | 0.21 | 0.19 | 79 | 1020.3 |
| 20260506230649 | 34 | 282 | 3.0 | 6.0 | 0.00 | 0.21 | 0.19 | 81 | 1020.3 |
| 20260506230450 | 34 | 282 | 3.0 | 6.0 | 0.00 | 0.21 | 0.19 | 79 | 1020.3 |
| 20260506225923 | 34 | 271 | 3.0 | 6.0 | 0.00 | 0.22 | 0.19 | 79 | 1020.2 |
| 20260506225717 | 34 | 277 | 2.0 | 6.0 | 0.00 | 0.22 | 0.19 | 79 | 1020.3 |
| 20260506225510 | 34 | 258 | 2.0 | 6.0 | 0.00 | 0.22 | 0.19 | 78 | 1020.3 |
| 20260506225307 | 34 | 258 | 3.0 | 6.0 | 0.00 | 0.22 | 0.19 | 78 | 1020.2 |
| 20260506225103 | 34 | 257 | 3.0 | 6.0 | 0.00 | 0.22 | 0.19 | 79 | 1020.2 |
| 20260506224856 | 34 | 290 | 3.0 | 6.0 | 0.00 | 0.22 | 0.19 | 79 | 1020.2 |
| 20260506224650 | 34 | 329 | 3.0 | 7.0 | 0.00 | 0.22 | 0.19 | 79 | 1020.3 |
| 20260506224136 | 34 | 250 | 3.0 | 7.0 | 0.00 | 0.22 | 0.19 | 76 | 1020.3 |
| 20260506223931 | 34 | 281 | 3.0 | 7.0 | 0.00 | 0.22 | 0.19 | 76 | 1020.3 |
| 20260506223722 | 34 | 289 | 3.0 | 7.0 | 0.00 | 0.22 | 0.19 | 78 | 1020.4 |
| 20260506223516 | 35 | 293 | 2.0 | 10.0 | 0.00 | 0.22 | 0.19 | 79 | 1020.4 |
| 20260506223000 | 34 | 297 | 1.0 | 10.0 | 0.00 | 0.22 | 0.19 | 81 | 1020.4 |
| 20260506222800 | 34 | 307 | 2.0 | 10.0 | 0.00 | 0.22 | 0.19 | 81 | 1020.4 |
| 20260506222601 | 34 | 307 | 3.0 | 10.0 | 0.00 | 0.22 | 0.19 | 80 | 1020.4 |
| 20260506222359 | 34 | 307 | 3.0 | 10.0 | 0.00 | 0.22 | 0.19 | 80 | 1020.5 |
| 20260506221838 | 34 | 285 | 3.0 | 10.0 | 0.00 | 0.22 | 0.19 | 80 | 1020.6 |
| 20260506221639 | 34 | 258 | 3.0 | 8.0 | 0.00 | 0.22 | 0.19 | 82 | 1020.5 |
| 20260506221110 | 34 | 340 | 2.0 | 6.0 | 0.00 | 0.23 | 0.19 | 81 | 1020.5 |
| 20260506220909 | 34 | 333 | 2.0 | 7.0 | 0.00 | 0.23 | 0.19 | 80 | 1020.6 |
| 20260506220710 | 34 | 333 | 3.0 | 7.0 | 0.00 | 0.23 | 0.19 | 80 | 1020.6 |
| 20260506220141 | 33 | 355 | 2.0 | 7.0 | 0.00 | 0.23 | 0.19 | 82 | 1020.6 |
| 20260506215939 | 33 | 13 | 2.0 | 8.0 | 0.00 | 0.23 | 0.19 | 82 | 1020.6 |
| 20260506215415 | 33 | 77 | 3.0 | 8.0 | 0.00 | 0.23 | 0.19 | 81 | 1020.5 |
| 20260506215212 | 33 | 309 | 3.0 | 8.0 | 0.00 | 0.23 | 0.19 | 81 | 1020.6 |
| 20260506215009 | 33 | 278 | 3.0 | 12.0 | 0.00 | 0.23 | 0.19 | 82 | 1020.6 |
| 20260506214802 | 32 | 335 | 3.0 | 12.0 | 0.00 | 0.23 | 0.19 | 83 | 1020.6 |
| 20260506214551 | 32 | 301 | 3.0 | 12.0 | 0.00 | 0.23 | 0.19 | 83 | 1020.7 |
| 20260506214341 | 32 | 350 | 3.0 | 12.0 | 0.00 | 0.23 | 0.19 | 83 | 1020.8 |
| 20260506214141 | 32 | 5 | 4.0 | 12.0 | 0.00 | 0.23 | 0.19 | 83 | 1020.7 |
| 20260506213942 | 32 | 304 | 5.0 | 12.0 | 0.00 | 0.23 | 0.19 | 82 | 1020.8 |
| 20260506213732 | 32 | 285 | 5.0 | 12.0 | 0.00 | 0.23 | 0.19 | 81 | 1020.8 |
| 20260506213532 | 32 | 282 | 6.0 | 12.0 | 0.00 | 0.23 | 0.19 | 79 | 1020.8 |
| 20260506213331 | 32 | 302 | 6.0 | 12.0 | 0.00 | 0.23 | 0.19 | 79 | 1020.9 |
| 20260506213131 | 33 | 336 | 5.0 | 12.0 | 0.00 | 0.23 | 0.19 | 78 | 1020.9 |
| 20260506212602 | 34 | 315 | 4.0 | 9.0 | 0.04 | 0.23 | 0.19 | 80 | 1020.9 |
| 20260506212359 | 33 | 270 | 4.0 | 9.0 | 0.04 | 0.23 | 0.19 | 79 | 1020.9 |
| 20260506212153 | 33 | 26 | 4.0 | 9.0 | 0.04 | 0.23 | 0.19 | 79 | 1020.9 |
| 20260506211943 | 33 | 319 | 4.0 | 9.0 | 0.04 | 0.23 | 0.19 | 80 | 1020.9 |
| 20260506211419 | 33 | 309 | 4.0 | 9.0 | 0.04 | 0.23 | 0.19 | 81 | 1020.9 |
| 20260506211219 | 33 | 338 | 3.0 | 9.0 | 0.04 | 0.22 | 0.19 | 81 | 1020.8 |
| 20260506210701 | 34 | 44 | 4.0 | 9.0 | 0.05 | 0.22 | 0.18 | 79 | 1020.7 |
| 20260506210450 | 34 | 17 | 3.0 | 9.0 | 0.05 | 0.22 | 0.18 | 79 | 1020.8 |
| 20260506210251 | 34 | 28 | 4.0 | 9.0 | 0.05 | 0.22 | 0.18 | 79 | 1020.8 |
| 20260506205725 | 34 | 355 | 4.0 | 9.0 | 0.05 | 0.20 | 0.18 | 78 | 1020.7 |
| 20260506205515 | 34 | 355 | 4.0 | 9.0 | 0.06 | 0.20 | 0.17 | 78 | 1020.8 |
| 20260506205308 | 34 | 31 | 5.0 | 9.0 | 0.08 | 0.21 | 0.17 | 78 | 1020.8 |
| 20260506205101 | 34 | 45 | 4.0 | 9.0 | 0.10 | 0.21 | 0.17 | 78 | 1020.8 |
| 20260506204852 | 35 | 22 | 4.0 | 9.0 | 0.10 | 0.21 | 0.17 | 78 | 1020.8 |
| 20260506204647 | 35 | 5 | 4.0 | 9.0 | 0.10 | 0.21 | 0.17 | 78 | 1020.9 |
| 20260506204444 | 35 | 9 | 4.0 | 9.0 | 0.10 | 0.21 | 0.16 | 78 | 1020.9 |
| 20260506204243 | 35 | 323 | 3.0 | 9.0 | 0.10 | 0.21 | 0.16 | 78 | 1020.9 |
| 20260506204035 | 35 | 336 | 3.0 | 9.0 | 0.10 | 0.21 | 0.16 | 78 | 1020.8 |
| 20260506203831 | 35 | 0 | 3.0 | 9.0 | 0.08 | 0.19 | 0.15 | 80 | 1020.9 |
| 20260506203626 | 34 | 321 | 3.0 | 9.0 | 0.08 | 0.19 | 0.15 | 81 | 1020.9 |
| 20260506203425 | 34 | 306 | 4.0 | 9.0 | 0.08 | 0.18 | 0.15 | 81 | 1020.9 |
| 20260506203217 | 34 | 306 | 4.0 | 9.0 | 0.06 | 0.18 | 0.13 | 80 | 1021.0 |
| 20260506203007 | 34 | 30 | 5.0 | 11.0 | 0.06 | 0.18 | 0.13 | 81 | 1020.9 |
| 20260506202757 | 34 | 332 | 4.0 | 11.0 | 0.06 | 0.18 | 0.13 | 80 | 1020.9 |
| 20260506202553 | 33 | 320 | 4.0 | 11.0 | 0.06 | 0.18 | 0.13 | 81 | 1020.9 |
| 20260506202351 | 33 | 21 | 4.0 | 11.0 | 0.06 | 0.18 | 0.13 | 82 | 1021.0 |
| 20260506202144 | 33 | 344 | 4.0 | 11.0 | 0.06 | 0.18 | 0.13 | 83 | 1020.9 |
| 20260506201942 | 33 | 11 | 5.0 | 11.0 | 0.06 | 0.18 | 0.13 | 83 | 1020.9 |
| 20260506201733 | 33 | 338 | 5.0 | 11.0 | 0.06 | 0.17 | 0.13 | 83 | 1020.9 |
| 20260506201200 | 33 | 28 | 5.0 | 10.0 | 0.06 | 0.17 | 0.12 | 83 | 1020.9 |
| 20260506200951 | 33 | 321 | 5.0 | 10.0 | 0.06 | 0.15 | 0.12 | 83 | 1020.8 |
| 20260506200742 | 33 | 321 | 5.0 | 10.0 | 0.06 | 0.15 | 0.10 | 83 | 1020.9 |
| 20260506200208 | 33 | 24 | 4.0 | 8.0 | 0.06 | 0.15 | 0.10 | 83 | 1020.8 |
| 20260506195958 | 33 | 321 | 4.0 | 14.0 | 0.06 | 0.15 | 0.10 | 83 | 1020.8 |
| 20260506195757 | 33 | 355 | 4.0 | 14.0 | 0.06 | 0.14 | 0.10 | 84 | 1020.8 |
| 20260506195546 | 33 | 311 | 4.0 | 14.0 | 0.06 | 0.14 | 0.10 | 83 | 1020.8 |
| 20260506195345 | 33 | 355 | 4.0 | 14.0 | 0.06 | 0.14 | 0.10 | 84 | 1020.8 |
| 20260506195137 | 33 | 337 | 5.0 | 14.0 | 0.06 | 0.14 | 0.10 | 84 | 1020.8 |
| 20260506194619 | 32 | 329 | 5.0 | 14.0 | 0.05 | 0.13 | 0.09 | 84 | 1020.7 |
| 20260506194411 | 32 | 5 | 5.0 | 14.0 | 0.05 | 0.13 | 0.09 | 84 | 1020.7 |
| 20260506194208 | 32 | 336 | 5.0 | 14.0 | 0.05 | 0.13 | 0.09 | 84 | 1020.7 |
| 20260506194007 | 32 | 21 | 4.0 | 13.0 | 0.05 | 0.13 | 0.09 | 85 | 1020.7 |
| 20260506193759 | 32 | 338 | 5.0 | 13.0 | 0.04 | 0.13 | 0.08 | 85 | 1020.7 |
| 20260506193549 | 31 | 9 | 6.0 | 13.0 | 0.04 | 0.13 | 0.08 | 84 | 1020.7 |
| 20260506193350 | 31 | 5 | 6.0 | 13.0 | 0.04 | 0.13 | 0.08 | 83 | 1020.7 |
| 20260506193145 | 32 | 345 | 6.0 | 13.0 | 0.04 | 0.13 | 0.08 | 83 | 1020.7 |
| 20260506192944 | 32 | 17 | 6.0 | 13.0 | 0.04 | 0.13 | 0.08 | 83 | 1020.7 |
| 20260506192745 | 32 | 38 | 6.0 | 13.0 | 0.04 | 0.13 | 0.08 | 83 | 1020.7 |
| 20260506192535 | 32 | 344 | 6.0 | 11.0 | 0.04 | 0.11 | 0.06 | 83 | 1020.6 |
| 20260506192018 | 32 | 330 | 6.0 | 11.0 | 0.06 | 0.11 | 0.06 | 83 | 1020.6 |
| 20260506191811 | 32 | 26 | 6.0 | 11.0 | 0.06 | 0.11 | 0.06 | 83 | 1020.7 |
| 20260506191603 | 32 | 321 | 6.0 | 11.0 | 0.06 | 0.11 | 0.06 | 82 | 1020.7 |
| 20260506191043 | 33 | 36 | 6.0 | 12.0 | 0.04 | 0.11 | 0.06 | 83 | 1020.6 |
| 20260506190841 | 33 | 53 | 6.0 | 12.0 | 0.04 | 0.12 | 0.06 | 83 | 1020.6 |
| 20260506190638 | 33 | 21 | 6.0 | 12.0 | 0.04 | 0.12 | 0.06 | 83 | 1020.6 |
| 20260506190430 | 33 | 31 | 6.0 | 12.0 | 0.04 | 0.11 | 0.06 | 84 | 1020.5 |
| 20260506190220 | 33 | 37 | 6.0 | 12.0 | 0.04 | 0.11 | 0.05 | 84 | 1020.5 |
| 20260506190014 | 32 | 32 | 6.0 | 12.0 | 0.05 | 0.11 | 0.05 | 85 | 1020.6 |
| 20260506185803 | 32 | 26 | 6.0 | 12.0 | 0.05 | 0.11 | 0.05 | 85 | 1020.6 |
| 20260506185232 | 32 | 67 | 5.0 | 12.0 | 0.05 | 0.11 | 0.05 | 86 | 1020.6 |
| 20260506185023 | 32 | 15 | 5.0 | 10.0 | 0.05 | 0.11 | 0.05 | 87 | 1020.7 |
| 20260506184815 | 31 | 30 | 5.0 | 10.0 | 0.05 | 0.10 | 0.05 | 86 | 1020.7 |
| 20260506184605 | 31 | 44 | 5.0 | 10.0 | 0.04 | 0.10 | 0.04 | 87 | 1020.7 |
| 20260506184039 | 31 | 355 | 5.0 | 9.0 | 0.04 | 0.10 | 0.04 | 87 | 1020.7 |
| 20260506183832 | 31 | 9 | 4.0 | 9.0 | 0.04 | 0.10 | 0.04 | 87 | 1020.8 |
| 20260506183631 | 31 | 339 | 5.0 | 9.0 | 0.04 | 0.09 | 0.04 | 87 | 1020.7 |
| 20260506183428 | 31 | 0 | 5.0 | 9.0 | 0.04 | 0.10 | 0.03 | 87 | 1020.8 |
| 20260506182539 | 31 | 329 | 5.0 | 10.0 | 0.09 | 0.10 | 0.03 | 88 | 1020.9 |
| 20260506182340 | 31 | 355 | 5.0 | 10.0 | 0.09 | 0.10 | 0.03 | 88 | 1020.9 |
| 20260506181448 | 31 | 30 | 5.0 | 10.0 | 0.12 | 0.09 | 0.02 | 88 | 1020.8 |
| 20260506181240 | 31 | 5 | 4.0 | 10.0 | 0.00 | 0.09 | 0.01 | 88 | 1020.8 |
| 20260506180709 | 31 | 14 | 4.0 | 8.0 | 0.00 | 0.08 | 0.00 | 89 | 1021.0 |
| 20260506180502 | 31 | 342 | 4.0 | 9.0 | 0.00 | 0.08 | 0.00 | 89 | 1021.0 |